Sault Ste Marie, MI

8:33 PM EDT on June 28, 2017 (GMT -0400)
Sault Ste Marie Municipal / Sanderson Field

Weather History for KANJ - December, 2013

Change the Weather History Date:

Tuesday, December 3, 2013

  Actual Average Record
Temperature  
Mean Temperature 17 °F 27 °F  
Max Temperature 23 °F 33 °F 60 °F (1982)
Min Temperature 11 °F 21 °F -14 °F (1940)
Degree Days  
Heating Degree Days 48 38  
Month to date heating degree days 126 113  
Since 1 July heating degree days 2019 2045  
Moisture  
Dew Point 13 °F    
Average Humidity 76    
Maximum Humidity 84    
Minimum Humidity 68    
Precipitation  
Precipitation 0.01 in 0.11 in 0.90 in (1984)
Month to date precipitation 0.01 0.32  
Year to date precipitation 45.99 30.48  
Snow  
Snow 0.10 in 1.00 in 8.90 in (1984)
Month to date snowfall 0.1 2.9  
Since 1 July snowfall 21.8 19.6  
Snow Depth 5.00 in    
Sea Level Pressure  
Sea Level Pressure 30.01 in    
Wind  
Wind Speed 7 mph (ENE)    
Max Wind Speed 13 mph    
Max Gust Speed 17 mph    
Visibility 8 miles    
Events Snow    
T = Trace of Precipitation, MM = Missing Value Source: NWS Daily Summary

Daily Weather History Graph

Daily Weather History Graph

Search for Another Location

Airport or City:

Trip Planner

Search our weather history database for the weather conditions in past years. The results will help you decide how hot, cold, wet, or windy it might be!

Date:

Astronomy

Dec. 03, 2013 Rise Set
Actual Time 8:03 AM EST 4:51 PM EST
Civil Twilight 7:28 AM EST 5:25 PM EST
Nautical Twilight 6:50 AM EST 6:03 PM EST
Astronomical Twilight 6:14 AM EST 6:40 PM EST
Moon 8:30 AM EST (12/3) 5:55 PM EST (12/3)
Length of Visible Light 9h 56m
Length of Day
8h 48m
New Moon, 1% of the Moon is Illuminated
Dec 3
New Moon
Dec 9
First Quarter
Dec 17
Full
Dec 25
Last Quarter
Jan 1
New

Hourly Weather History & Observations

Time (EST) Temp. Windchill Dew Point Humidity Pressure Visibility Wind Dir Wind Speed Gust Speed Precip Events Conditions
12:55 AM 19.0 °F 11.1 °F 12.0 °F 74% 29.99 in 10.0 mi ENE 5.8 mph - N/A   Clear
1:55 AM 18.0 °F 11.1 °F 12.0 °F 78% 29.99 in 10.0 mi NE 4.6 mph - N/A   Clear
2:55 AM 17.1 °F 10.0 °F 10.9 °F 77% 30.00 in 10.0 mi ENE 4.6 mph - N/A   Clear
3:55 AM 16.0 °F 5.3 °F 9.0 °F 74% 30.00 in 10.0 mi ENE 8.1 mph - N/A   Clear
4:55 AM 14.0 °F 6.5 °F 8.1 °F 77% 29.99 in 10.0 mi ENE 4.6 mph - N/A   Clear
5:55 AM 12.0 °F 4.1 °F 8.1 °F 84% 30.00 in 10.0 mi ENE 4.6 mph - N/A   Clear
6:55 AM 12.0 °F 5.9 °F 7.0 °F 80% 30.01 in 10.0 mi ENE 3.5 mph - N/A   Clear
7:55 AM 12.9 °F 2.6 °F 8.1 °F 81% 30.01 in 10.0 mi ENE 6.9 mph - N/A   Clear
8:55 AM 14.0 °F 2.9 °F 8.1 °F 77% 30.04 in 10.0 mi ENE 8.1 mph - N/A   Clear
9:55 AM 15.1 °F 4.2 °F 8.1 °F 74% 30.05 in 10.0 mi ENE 8.1 mph - N/A   Clear
10:55 AM 17.1 °F 6.6 °F 10.0 °F 74% 30.04 in 10.0 mi ENE 8.1 mph - N/A   Partly Cloudy
11:55 AM 19.0 °F 11.1 °F 12.0 °F 74% 30.03 in 10.0 mi Variable 5.8 mph - N/A   Mostly Cloudy
12:55 PM 21.0 °F 12.4 °F 12.9 °F 71% 30.03 in 10.0 mi East 6.9 mph - N/A   Overcast
1:55 PM 21.9 °F 12.5 °F 14.0 °F 72% 30.02 in 10.0 mi East 8.1 mph - N/A   Overcast
2:41 PM 23.0 °F 15.8 °F 16.0 °F 74% 29.98 in 2.5 mi East 5.8 mph - 0.00 in Snow Light Snow
2:55 PM 21.9 °F 15.7 °F 16.0 °F 78% 30.01 in 2.0 mi East 4.6 mph - 0.00 in Snow Light Snow
3:04 PM 21.9 °F 15.7 °F 17.1 °F 82% 29.98 in 1.2 mi ENE 4.6 mph - 0.00 in Snow Light Snow
3:35 PM 21.9 °F 13.4 °F 17.1 °F 82% 29.98 in 2.0 mi East 6.9 mph - 0.01 in Snow Light Snow
3:55 PM 21.9 °F 12.5 °F 17.1 °F 82% 30.01 in 4.0 mi East 8.1 mph - 0.01 in Snow Light Snow
4:55 PM 23.0 °F 17.0 °F 18.0 °F 81% 30.02 in 10.0 mi ENE 4.6 mph - 0.00 in   Overcast
5:04 PM 21.9 °F 13.4 °F 18.0 °F 85% 29.98 in 10.0 mi ENE 6.9 mph - N/A   Overcast
5:55 PM 21.9 °F 13.4 °F 17.1 °F 82% 30.03 in 6.0 mi ENE 6.9 mph - 0.00 in Snow Light Snow
6:55 PM 21.9 °F 11.7 °F 17.1 °F 82% 30.02 in 8.0 mi ENE 9.2 mph - 0.00 in Snow Light Snow
7:55 PM 23.0 °F 11.7 °F 16.0 °F 74% 30.02 in 10.0 mi East 11.5 mph - 0.00 in   Overcast
8:25 PM 23.0 °F 12.4 °F 16.0 °F 74% 30.00 in 10.0 mi East 10.4 mph - N/A   Overcast
8:55 PM 23.0 °F 11.7 °F 15.1 °F 72% 30.02 in 10.0 mi East 11.5 mph - N/A   Overcast
9:16 PM 23.0 °F 13.1 °F 16.0 °F 74% 29.98 in 10.0 mi East 9.2 mph - N/A   Overcast
9:55 PM 21.9 °F 11.0 °F 16.0 °F 78% 30.03 in 10.0 mi East 10.4 mph - N/A   Overcast
10:55 PM 23.0 °F 13.1 °F 16.0 °F 74% 30.01 in 10.0 mi East 9.2 mph - N/A   Overcast
11:04 PM 23.0 °F 12.4 °F 16.0 °F 74% 29.98 in 10.0 mi East 10.4 mph - N/A   Overcast
11:55 PM 21.9 °F 12.5 °F 16.0 °F 78% 30.02 in 5.0 mi ENE 8.1 mph - 0.00 in Snow Light Snow